Theta_e
307 307 307 308 307 307 307 307 308 308 308 309 309 309 308 308 308 310 313 314 315 313 311 315 319 316 321 324 322 321 322 321 319 320 320 322 322 322 324 324 326 329 331 337 348
307 307 307 307 307 307 307 307 307 308 308 308 308 308 308 307 309 310 310 311 312 312 314 314 318 319 320 323 324 322 323 324 323 322 321 322 321 320 320 320 321 323 326 332 341
306 306 306 306 306 306 306 306 307 307 307 308 308 308 307 307 311 314 316 314 313 312 311 312 315 319 320 320 323 324 323 324 324 325 323 322 321 320 320 320 321 321 325 327 334
305 305 305 305 305 305 306 306 306 306 307 307 307 307 307 308 313 321 315 314 313 313 315 314 317 319 321 321 321 323 322 322 323 324 323 322 321 321 320 320 322 322 322 324 331
304 304 304 304 305 305 305 305 306 306 306 307 307 307 308 310 310 310 314 318 318 318 318 318 318 319 321 322 321 322 322 322 321 321 323 322 321 322 322 321 321 321 322 323 324
304 304 304 304 304 304 304 304 305 306 307 307 308 307 309 311 308 308 315 315 318 318 320 319 319 320 320 322 321 321 322 322 322 321 321 321 321 321 322 322 321 320 320 321 322
303 303 303 304 304 304 304 304 304 305 306 308 308 308 310 310 308 308 309 309 310 315 318 319 319 318 320 320 321 320 320 321 321 321 320 320 320 321 321 321 321 321 320 320 321
303 302 303 303 304 304 305 305 305 306 306 309 309 308 309 307 308 308 307 309 311 313 314 318 320 320 318 318 319 320 320 320 320 320 320 320 320 321 321 321 321 321 321 321 320
302 302 303 303 304 304 304 304 304 305 309 309 310 309 310 309 310 309 308 309 309 310 312 317 319 321 321 321 321 321 322 321 321 321 320 320 320 320 321 321 321 321 322 321 321
302 302 302 303 303 303 303 305 307 307 310 311 311 311 311 310 310 312 313 312 313 313 311 312 319 322 322 323 326 323 323 323 324 322 321 321 321 322 321 321 322 322 322 322 321
302 302 302 303 302 301 306 309 309 310 312 309 307 310 309 308 309 309 312 314 314 315 316 313 315 318 320 322 322 322 323 324 323 324 323 322 322 321 321 321 321 322 323 323 323
302 302 302 303 301 303 307 310 307 307 309 308 309 310 309 309 310 308 308 312 314 316 314 315 316 315 317 319 321 322 322 324 324 323 324 323 322 322 322 322 321 322 323 323 323
299 299 300 301 301 308 307 308 307 307 309 310 310 312 311 312 311 307 308 310 315 316 314 314 314 315 315 316 320 321 323 323 324 323 323 323 323 324 323 322 322 322 322 323 323
298 299 300 302 305 307 307 306 307 307 312 312 312 313 314 312 313 311 313 309 314 314 315 318 316 314 316 316 316 321 320 321 323 324 325 322 323 323 324 323 323 322 322 323 323
298 299 300 303 307 308 305 306 307 308 317 310 310 310 310 311 312 313 313 312 312 314 313 315 317 315 317 316 316 317 319 320 321 323 323 323 324 324 324 324 324 324 323 323 323
298 300 301 306 306 305 305 307 308 315 315 309 309 310 312 313 314 313 314 313 313 316 315 316 315 318 314 315 316 317 319 321 321 322 323 322 323 324 326 325 325 324 323 323 323
299 302 304 305 306 305 306 310 317 312 309 310 310 310 311 315 315 316 316 318 320 324 320 320 320 318 318 314 316 318 321 327 325 325 325 322 323 323 324 325 325 324 324 323 323
301 305 307 305 305 305 309 314 310 309 310 309 310 311 315 314 314 314 317 318 318 318 318 323 324 317 318 318 316 318 322 325 331 325 324 322 323 324 324 325 325 325 324 324 323
303 307 307 304 305 308 310 312 312 310 308 309 311 312 311 311 313 315 317 319 318 317 321 322 321 318 318 318 317 318 325 323 322 322 323 321 323 323 323 326 328 329 325 324 324
305 308 308 305 306 308 310 308 309 307 307 309 314 311 315 313 315 315 317 317 320 316 317 321 325 321 319 318 318 317 320 324 323 325 323 322 324 324 325 326 328 329 335 338 330
307 309 306 305 307 309 313 309 308 307 307 310 312 314 313 313 314 313 316 316 315 314 314 317 322 321 321 320 319 318 320 321 322 325 325 325 323 325 327 327 331 342 338 336 337
308 310 306 306 309 308 309 307 307 308 308 309 310 312 313 313 315 312 316 315 313 312 314 313 321 324 324 320 321 319 323 321 325 328 326 324 339 336 328 331 338 333 332 332 334
308 309 307 307 311 309 308 307 308 308 309 310 309 310 310 315 314 312 311 312 311 313 311 314 322 329 327 325 323 324 323 323 324 329 328 328 341 337 337 333 329 329 328 330 331
307 309 308 308 308 306 307 309 309 308 308 309 309 311 313 312 310 313 311 312 311 312 313 314 316 327 327 325 325 328 323 321 324 327 329 329 341 338 333 330 328 327 326 327 328
306 307 305 308 308 307 309 309 309 309 309 310 312 311 311 312 311 314 313 312 311 313 314 311 319 322 324 325 321 324 324 321 324 326 328 336 338 337 332 329 326 324 324 325 325
305 304 304 306 308 309 310 310 310 310 310 312 312 310 310 313 313 312 311 311 311 313 313 312 316 320 328 324 321 322 321 323 321 325 325 333 338 332 328 325 325 325 325 325 324
303 303 303 304 309 310 310 308 310 310 310 310 311 311 313 312 311 311 311 311 309 311 311 314 318 325 328 322 322 327 322 322 324 324 325 334 334 328 327 327 327 326 325 324 323
Wind_Speed
19 19 19 19 19 20 20 20 19 20 20 21 22 23 26 28 32 31 29 26 18 30 19 12 13 22 23 21 23 19 18 22 29 27 21 21 16 14 15 18 21 20 16 3 12
20 20 21 22 22 22 23 23 22 21 20 20 20 20 22 24 29 38 38 25 21 20 23 22 20 20 20 20 21 22 18 31 24 22 19 21 18 14 16 18 18 13 18 11 11
21 22 22 23 23 23 24 25 25 24 23 22 21 19 19 17 24 5 7 11 33 28 25 25 25 22 25 20 27 27 29 21 25 23 20 18 16 17 16 16 19 19 18 12 12
23 23 24 24 25 26 26 26 25 25 25 25 22 20 17 14 9 9 6 4 18 20 22 25 25 26 26 30 27 31 29 28 29 19 16 19 15 19 18 18 15 15 19 18 13
26 25 25 26 28 29 28 29 29 28 27 25 23 19 15 15 25 26 12 2 10 15 24 23 26 27 30 26 28 32 30 25 23 27 22 18 20 22 21 18 19 8 14 8 12
30 28 29 29 30 32 35 38 37 34 29 25 20 16 16 28 22 21 20 19 17 19 22 22 16 25 23 31 29 27 26 28 27 21 23 22 21 20 20 16 18 17 16 15 17
29 29 30 30 30 32 34 37 37 30 33 27 22 17 20 31 18 24 15 21 24 27 22 27 27 16 24 22 27 28 25 25 28 28 22 19 27 30 21 17 18 17 16 18 22
30 33 32 33 33 34 37 35 32 31 25 20 12 14 12 21 22 35 35 27 17 17 26 26 24 25 22 18 22 19 29 25 27 23 28 20 29 26 24 22 22 19 21 22 21
32 34 34 34 35 36 37 30 29 16 10 4 8 11 12 4 15 23 26 27 30 23 15 14 17 20 23 22 20 25 24 32 25 27 22 29 25 25 15 25 26 21 20 19 21
33 36 39 38 37 36 29 30 29 18 9 8 7 7 16 14 8 3 8 18 16 16 24 21 11 19 21 22 28 34 30 23 25 26 27 27 28 23 19 17 22 25 25 22 21
34 38 39 40 40 30 22 26 15 7 9 20 26 22 28 33 44 20 15 10 17 14 21 26 18 24 36 35 30 26 26 26 25 21 27 25 23 25 21 15 19 21 22 23 23
37 40 41 42 30 16 14 12 13 11 17 27 25 25 24 18 21 19 14 10 18 22 22 21 27 33 28 29 30 29 29 25 21 24 16 19 21 24 25 22 20 21 20 22 21
44 47 46 33 20 11 17 10 13 11 8 18 6 3 3 8 10 10 15 16 22 21 23 27 26 28 28 28 27 31 28 27 18 14 16 17 21 23 24 23 21 19 20 20 20
47 50 39 26 13 20 14 17 15 8 6 8 6 5 4 10 3 7 16 22 17 23 24 20 25 25 29 29 30 27 29 25 24 15 18 19 16 21 21 25 24 24 19 20 21
51 46 26 12 16 12 20 19 13 4 4 15 11 5 16 17 24 9 22 17 20 20 17 23 26 24 20 26 28 30 22 25 26 20 17 24 16 20 28 27 28 26 25 22 21
52 33 17 14 17 20 23 19 3 5 4 8 23 23 26 23 18 9 20 17 20 16 14 20 21 13 21 23 23 24 23 24 26 17 17 19 18 16 18 24 24 25 25 24 22
47 23 12 11 17 25 21 10 6 8 23 20 30 26 20 12 11 11 11 9 16 7 10 26 23 17 20 24 23 24 21 10 14 17 14 24 21 17 22 19 23 22 24 23 22
37 15 12 15 24 21 18 11 10 21 20 25 22 23 10 13 14 16 10 9 17 22 15 3 9 24 19 25 27 28 25 15 17 23 25 26 27 21 15 11 8 14 22 23 22
31 10 8 22 19 16 11 6 10 16 19 21 23 14 17 15 13 12 14 12 8 15 11 5 8 6 22 22 26 28 22 27 17 22 18 23 21 24 14 8 5 3 10 22 22
24 12 10 24 15 14 9 6 10 14 17 19 11 11 19 20 18 22 11 17 8 14 16 7 11 8 15 24 29 24 26 22 16 17 19 23 21 14 21 16 12 15 10 11 6
12 6 16 24 16 8 7 8 11 16 19 10 16 9 13 16 21 22 7 3 16 15 17 7 7 5 13 18 23 16 20 23 21 15 15 17 21 16 21 18 16 17 13 12 13
10 7 14 21 8 8 9 13 12 17 18 9 10 10 11 18 13 12 8 6 11 7 9 4 4 8 18 18 20 17 22 29 14 23 14 12 7 14 22 19 21 15 13 13 14
9 7 8 15 6 10 13 11 11 21 19 8 12 10 18 12 11 12 9 9 16 14 4 4 4 4 3 2 17 28 27 28 22 19 14 13 7 11 23 21 17 16 12 13 14
6 6 5 7 9 12 15 14 17 15 16 14 19 17 15 20 11 13 21 9 19 12 13 4 4 11 6 15 16 8 19 27 25 8 14 2 14 14 16 19 15 14 14 15 15
6 5 4 7 10 16 14 14 22 18 8 15 8 18 23 7 15 4 17 17 14 14 1 1 6 11 20 10 18 16 20 23 20 14 4 19 17 17 18 19 15 16 16 18 17
6 4 5 13 14 15 10 15 19 25 17 11 10 22 22 11 12 20 15 8 6 8 8 4 4 9 16 16 21 21 22 25 23 21 5 14 22 19 19 18 17 16 19 19 19
10 5 3 11 12 13 12 18 24 20 10 14 18 17 17 14 18 21 20 17 13 9 5 5 5 5 12 16 13 18 22 21 11 17 10 10 17 23 20 17 15 17 18 18 19
Wind_Direction
350 346 341 336 332 328 324 320 316 313 310 309 310 309 310 310 310 295 265 252 245 242 239 264 208 210 227 232 228 224 243 239 238 240 245 251 246 228 245 250 245 245 233 103 120
347 343 338 334 331 328 324 320 316 312 307 304 301 302 306 307 302 284 267 258 233 225 215 229 220 203 214 223 224 223 229 236 239 242 245 243 238 214 234 227 238 219 235 140 165
344 340 336 331 327 324 320 316 313 310 306 303 302 302 302 306 293 250 311 257 225 216 229 227 236 217 220 220 220 221 235 236 241 252 259 265 229 202 206 223 212 223 212 177 203
343 339 334 328 324 321 317 312 308 305 303 301 299 298 299 291 273 58 11 63 197 212 216 222 223 226 225 222 223 227 233 244 266 254 234 260 257 240 224 244 243 213 217 223 187
342 337 333 329 325 321 316 311 307 301 297 294 291 289 291 247 248 266 265 226 176 196 210 210 215 219 224 233 224 230 235 240 246 256 260 228 241 245 244 226 251 237 224 201 211
339 336 332 329 324 319 318 315 311 305 296 291 285 275 252 260 268 272 223 235 238 216 222 220 222 223 237 230 229 233 237 242 245 250 237 248 242 239 238 234 226 234 215 222 229
335 331 329 325 321 317 314 311 307 306 300 291 276 252 247 245 262 265 242 249 247 237 232 227 231 217 227 240 237 253 247 238 235 237 234 249 247 237 233 217 218 216 223 226 223
333 332 329 325 322 319 315 311 310 305 301 296 261 227 253 257 256 257 261 267 240 233 243 240 233 251 242 232 246 236 239 239 227 226 237 223 247 229 228 223 209 224 224 223 230
334 332 328 325 322 320 317 314 309 310 296 271 187 205 260 174 230 247 247 237 240 242 241 260 256 243 236 237 236 228 231 226 239 220 217 219 240 252 200 216 218 214 224 210 211
335 333 331 328 323 321 320 312 309 284 233 206 261 203 238 280 294 251 226 226 230 232 225 219 228 223 226 215 221 215 223 240 232 228 201 225 232 253 207 202 209 218 221 221 218
336 334 332 329 324 324 321 317 358 232 236 288 287 247 272 285 292 271 239 214 221 234 215 209 222 217 217 221 231 240 228 231 227 229 224 212 238 220 240 197 219 212 216 223 222
337 336 334 328 328 316 302 337 5 325 299 295 265 252 263 276 266 263 242 216 210 235 209 212 219 228 229 225 231 240 242 246 233 218 225 207 232 242 218 221 212 215 214 209 213
342 342 339 331 327 298 316 5 334 332 286 299 244 260 263 58 317 266 247 217 227 227 224 224 215 229 233 234 226 225 228 233 236 194 212 230 237 228 233 215 208 215 209 216 203
343 343 338 337 303 332 343 339 328 359 281 284 119 340 71 333 240 197 316 232 248 250 219 230 255 229 212 228 222 229 218 239 238 228 213 202 237 223 221 222 218 210 209 201 209
343 344 334 338 308 316 332 324 332 316 272 315 8 109 316 298 311 184 217 230 225 239 256 224 225 240 213 211 221 230 229 215 235 232 231 202 219 248 199 216 210 210 210 210 197
342 343 339 348 305 330 321 318 12 243 338 4 354 340 343 351 340 349 206 225 220 212 234 277 284 302 261 243 205 220 221 216 226 213 225 233 198 225 195 213 213 199 206 205 204
342 341 323 319 329 324 321 301 283 4 354 353 335 335 328 343 302 325 303 229 239 213 192 232 212 231 243 229 218 210 200 193 208 216 221 215 227 232 210 185 206 195 194 201 197
342 339 316 323 331 326 308 305 339 3 357 331 330 317 11 0 321 332 294 258 225 254 269 228 226 219 203 227 205 196 200 200 189 196 212 223 215 208 242 151 170 182 184 195 193
344 342 306 349 337 314 300 21 5 348 335 332 321 344 351 349 331 334 319 297 226 236 243 290 236 183 234 204 229 187 206 210 215 200 216 209 215 217 170 140 146 234 181 184 186
331 307 3 345 326 300 19 349 343 342 326 327 327 339 333 338 338 340 1 360 13 19 1 307 292 220 193 195 218 207 196 215 236 211 204 199 198 186 184 164 174 183 103 56 141
307 300 16 341 298 330 24 352 333 326 330 321 311 308 313 332 326 331 334 43 10 355 352 299 272 294 242 207 202 188 199 212 224 229 207 203 192 175 182 166 163 110 91 81 86
313 344 8 338 25 355 7 337 310 330 331 323 303 304 301 323 318 321 320 330 353 358 312 240 299 231 231 198 198 208 207 207 214 218 255 207 103 346 172 133 107 103 95 94 95
334 309 36 340 16 357 339 321 343 336 335 318 313 307 315 319 321 309 322 312 315 356 312 328 252 176 253 240 215 200 187 215 210 233 228 207 131 67 94 103 99 100 105 106 105
327 343 350 312 2 340 336 327 335 349 325 325 304 301 327 329 314 290 298 304 326 297 282 317 267 270 236 175 194 156 214 201 204 221 235 132 145 120 111 100 106 116 112 106 108
17 14 20 314 335 312 330 321 338 339 311 317 305 340 327 303 308 270 318 320 304 278 193 214 270 257 249 261 184 189 187 216 170 221 276 136 148 138 125 115 125 120 119 114 112
355 351 332 294 296 293 344 344 331 332 336 316 318 316 311 291 282 294 303 306 282 304 347 210 256 251 245 220 171 198 201 203 194 209 210 214 134 125 111 114 124 122 118 113 115
8 327 271 293 325 326 351 326 322 336 313 333 312 312 307 311 299 281 275 265 248 273 309 282 319 360 133 131 144 194 196 215 114 238 296 162 115 124 119 122 122 124 118 116 115